STARLINK-11502, 62474

Orbit data source: Space-Track

STARLINK-11502, 62474 is a payload satellite owned by SpaceX/Seattle (US) in LEO that was launched on Tue, 31 Dec 2024 UTC via an FALCON 9 launch vehicle from the Air Force Eastern Test Range (AFETR). Payload-class satellites include a variety of spacecraft equipped with specific instruments for various scientific and technological missions. These include communications satellites like Starlink; space stations such as the ISS; scientific satellites like the Hubble; Earth observation satellites from companies like Planet Labs, Umbra, and HawkEye 360; GPS; miniature CubeSats for education and research; and military/defense satellites.

Loading next visibility...
Identifier
62474, 2024-254N
Orbit
LEO
Country
Flag of USUS
Related business
Manufacturer
SpaceX/Seattle
Mission
Operational Commercial Communications
Bus & Motor
STARLINK V2MD, Unknown motor
Mass
960 kg wet, ~910 kg dry
Launch date (UTC)
2024-12-31 (9 months ago)
Launch vehicle
FALCON 9
Launch site
Air Force Eastern Test Range (AFETR)
Object type
Payload
Rocket body
Debris
Shape & HBR
Box + 2 Pan, 14.5 m
Radar Cross Section
36.964 m², Large (>1 m²)

Expand to show TLE details & history
Last TLE update: 13 hours ago

TLE from 13 hours ago
0 STARLINK-11502
1 62474U 24254N   25258.52930004  .00274899  00000-0  20679-2 0  9990
2 62474  43.0007 198.7317 0000558 326.2739  33.8094 15.70929692 41850
Epoch: 2025-09-15T12:42Z
TLE epoch observation values (Epoch: 2025-09-15T12:42:11.523Z)
Latitude
0.00004°
Longitude
13.45109°
Altitude
355.698 km
Speed
7.698 km/s
True Right ascension
13h 14m 55s
True Declination
0° 00' 00"
Sunlit
Object was in daylight at epoch
Visualization orbit readout
Latitude
Unknown
Longitude
Unknown
Altitude
Unknown
Speed
Unknown
Apparent Right ascension
Unknown
Apparent Declination
Unknown
Sunlit
N/A
Visualization observer readout
Local Sidereal Time
18:19:01
Azimuth
Unknown
Elevation
Unknown
Doppler factor
Unknown
Orbital elements
Apogee altitude
358.596 km
Perigee altitude
357.844 km
Semi-major axis
6,736.357 km
Eccentricity
0.00006
Inclination
43.0007°
RAAN
198.7317°
Arg. of periapsis
326.2739°
True anomaly
33.81296°
Mean anomaly
33.8094°
Eccentric anomaly
33.81118°
Mean motion
3.9256 °/min
Orbital period
91.71 mins
BSTAR
0.0020679
Loading maneuver chart data...
Computing Atmospheric mass density...
Loading historical data...
Loading historical data...
Loading historical data...
Loading historical data...
Loading historical data...
Loading historical data...
Loading historical data...

Documentation

Showing up to 5 results
|